This is the latest recevied weather packets stored in our database for station/object KG7FOQ-13. If no packets are shown the sender has not sent any weather packets the latest 10 day(s).
| Time | Temp. | Humidity | Pressure | Rain* | Wind** | Luminosity | Snow |
|---|---|---|---|---|---|---|---|
| 1787878526 | 29.44° C | 25% | 1015.2 hPa | 0 mm | - | - | - |
| 1787878227 | 30° C | 25% | 1015.2 hPa | 0 mm | - | - | - |
| 1787877926 | 29.44° C | 24% | 1015.3 hPa | 0 mm | - | - | - |
| 1787877625 | 29.44° C | 24% | 1015.3 hPa | 0 mm | - | - | - |
| 1787877324 | 28.89° C | 24% | 1015.3 hPa | 0 mm | - | - | - |
| 1787877069 | 28.89° C | 26% | 1015.2 hPa | 0 mm | - | - | - |
| 1787877024 | 28.89° C | 26% | 1015.2 hPa | 0 mm | - | - | - |
| 1787876723 | 29.44° C | 29% | 1015.3 hPa | 0 mm | - | - | - |
| 1787876518 | 29.44° C | 27% | 1015.3 hPa | 0 mm | - | - | - |
| 1787876423 | 29.44° C | 27% | 1015.3 hPa | 0 mm | - | - | - |
| 1787876213 | 30° C | 27% | 1015.2 hPa | 0 mm | - | - | - |
| 1787876122 | 30° C | 27% | 1015.2 hPa | 0 mm | - | - | - |
| 1787875940 | 31.11° C | 23% | 1015.5 hPa | 0 mm | - | - | - |
| 1787875823 | 31.11° C | 23% | 1015.5 hPa | 0 mm | - | - | - |
| 1787875521 | 31.11° C | 14% | 1015.3 hPa | 0 mm | - | - | - |
| 1787875221 | 31.11° C | 16% | 1015.5 hPa | 0 mm | - | - | - |
| 1787874920 | 31.11° C | 18% | 1015.5 hPa | 0 mm | - | - | - |
| 1787874621 | 31.11° C | 15% | 1015.6 hPa | 0 mm | - | - | - |
| 1787874409 | 31.11° C | 15% | 1015.5 hPa | 0 mm | - | - | - |
| 1787874318 | 31.11° C | 15% | 1015.5 hPa | 0 mm | - | - | - |
| 1787873717 | 31.11° C | 15% | 1015.5 hPa | 0 mm | - | - | - |
| 1787873450 | 31.11° C | 20% | 1015.6 hPa | 0 mm | - | - | - |
| 1787873417 | 31.11° C | 20% | 1015.6 hPa | 0 mm | - | - | - |
| 1787873116 | 31.67° C | 17% | 1015.7 hPa | 0 mm | - | - | - |
| 1787872815 | 31.67° C | 16% | 1015.6 hPa | 0 mm | - | - | - |
* Rain latest hour (hover to see other rain measurements)
** Current wind speed in m/s (hover to see current wind gust speed)